Location: Okie-Tex Star Party
(36.8978°N, 102.9520°W)
Time: 03:42:51
(UTC-06:00)

Amateur Radio Satellites - All Passes

Search period start: 29 November 2014 03:12
Search period end: 30 November 2014 03:12
Location: Okie-Tex Star Party, 36.8978°N, 102.9520°W

Satellite Date Start Highest point End Downlink Frequencies (MHz)
Time Altitude Azimuth
STARS 29 Nov 03:22:23 03:26:36 45° 260° (W) 03:30:50 437.465
PCSat 29 Nov 03:22:38 03:24:57 13° 44° (NE) 03:27:16 145.827
YUBILEINY 29 Nov 03:23:24 03:32:11 73° 278° (W) 03:40:58 435.215
ITAMSAT 1 29 Nov 03:24:08 03:29:18 75° 285° (WNW) 03:34:27 435.822/435.867
RS-15 29 Nov 03:27:18 03:36:38 31° 255° (WSW) 03:46:20 29.354- 29.394
HORYU 2 29 Nov 03:46:01 03:50:18 42° 99° (E) 03:54:34 437.375
BEESAT 2 29 Nov 03:47:12 03:48:52 12° 45° (NE) 03:50:32 435.950
MOZHAYETS 4 29 Nov 04:03:38 04:06:40 18° 67° (ENE) 04:09:43
Oscar 19 29 Nov 04:05:22 04:07:22 12° 298° (WNW) 04:09:23 437.125/150
ISS 29 Nov 04:06:05 04:07:37 13° 22° (NNE) 04:09:10 145.825
AO-7 29 Nov 04:10:24 04:17:32 30° 97° (E) 04:24:36 29.400- 29.500
Gurwin Techsat 1B 29 Nov 04:16:18 04:21:16 42° 289° (WNW) 04:26:13 435.225
JAS-2 29 Nov 04:31:49 04:32:29 10° 84° (E) 04:33:09 435.910
SO-50 29 Nov 04:34:18 04:37:59 24° 311° (NW) 04:41:47 436.795
AIST 2 29 Nov 04:35:54 04:38:56 18° 48° (NE) 04:41:56 435.215
PCSat 29 Nov 05:03:45 05:09:12 83° 63° (ENE) 05:14:37 145.827
BEESAT 3 29 Nov 05:05:06 05:09:18 78° 60° (ENE) 05:13:25 437.485
BEESAT 2 29 Nov 05:23:27 05:27:39 73° 242° (WSW) 05:31:47 435.950
HORYU 2 29 Nov 05:23:47 05:26:36 17° 294° (WNW) 05:29:26 437.375
YUBILEINY 29 Nov 05:27:13 05:30:35 13° 299° (WNW) 05:33:58 435.215
O/OREOS (USA 219) 29 Nov 05:33:24 05:37:41 47° 106° (ESE) 05:41:59 437.305
PRISM 29 Nov 05:36:16 05:39:57 30° 70° (ENE) 05:43:40 437.425
MOZHAYETS 4 29 Nov 05:39:12 05:43:32 41° 262° (W) 05:47:55
ISS 29 Nov 05:41:28 05:44:45 72° 40° (NE) 05:48:02 145.825
CUBESAT XI-V 29 Nov 05:54:32 05:57:52 19° 67° (ENE) 06:01:12 437.345
AO-7 29 Nov 06:02:28 06:10:33 55° 294° (WNW) 06:18:37 29.400- 29.500
STRAND 1 29 Nov 06:09:47 06:14:11 29° 68° (ENE) 06:18:35 437.568
AIST 1 29 Nov 06:10:25 06:13:02 15° 73° (ENE) 06:15:37
JAS-2 29 Nov 06:11:52 06:18:45 85° 103° (ESE) 06:24:44 435.910
AIST 2 29 Nov 06:13:42 06:17:46 43° 245° (WSW) 06:21:46 435.215
Cubesat XI-IV 29 Nov 06:30:31 06:35:12 31° 97° (E) 06:39:50 437.490
PCSat 29 Nov 06:50:30 06:51:49 11° 258° (WSW) 06:53:08 145.827
CUTE-I 29 Nov 07:10:26 07:15:45 75° 103° (ESE) 07:21:02 437.470
PRISM 29 Nov 07:12:28 07:15:31 19° 265° (W) 07:18:35 437.425
O/OREOS (USA 219) 29 Nov 07:14:42 07:17:21 15° 302° (WNW) 07:20:00 437.305
GONETS M04 29 Nov 07:20:25 07:26:58 24° 82° (E) 07:33:32
CUBESAT XI-V 29 Nov 07:30:35 07:34:59 39° 262° (W) 07:39:25 437.345
AIST 1 29 Nov 07:46:49 07:50:51 37° 269° (W) 07:54:49
STRAND 1 29 Nov 07:48:49 07:53:16 30° 263° (W) 07:57:44 437.568
JAS-2 29 Nov 07:59:00 08:02:39 15° 303° (WNW) 08:06:07 435.910
AO-7 29 Nov 07:59:53 08:01:29 11° 313° (NW) 08:03:05 29.400- 29.500
Cubesat XI-IV 29 Nov 08:10:38 08:15:11 30° 292° (WNW) 08:19:43 437.490
HO-68 29 Nov 08:28:54 08:33:20 17° 92° (E) 08:37:44 435.675
CUTE-I 29 Nov 08:52:47 08:55:08 13° 299° (WNW) 08:57:28 437.470
SEEDS 29 Nov 08:59:48 09:02:38 17° 94° (E) 09:05:28 437.485
DOVE 4 29 Nov 09:09:06 09:10:56 12° 93° (E) 09:12:48 437.250
AAUSAT CUBESAT 2 29 Nov 09:09:21 09:12:00 16° 93° (E) 09:14:39 437.432
GONETS M04 29 Nov 09:14:14 09:22:57 66° 280° (W) 09:31:46
BRITE-PL 29 Nov 09:15:30 09:19:08 29° 97° (E) 09:22:52 437.365/2234.400
Oscar 11 29 Nov 09:22:25 09:23:26 11° 91° (E) 09:24:26 145.826/435.025
COMPASS 1 29 Nov 09:26:21 09:30:05 29° 97° (E) 09:33:47 437.405
CANX-2 29 Nov 09:31:57 09:36:10 53° 100° (E) 09:40:23 2200.000
ANTELSAT 29 Nov 09:38:24 09:40:27 13° 65° (ENE) 09:42:30 437.575/2403.000
QB50P1 29 Nov 09:49:27 09:51:03 12° 65° (ENE) 09:52:39 145.935-145.965
DX 1 29 Nov 09:51:15 09:54:29 20° 95° (E) 09:57:43 434.975-435.025
UWE-3 29 Nov 09:56:54 09:59:13 14° 93° (E) 10:01:33 435.000/436.395/437.385
CUBEBUG 2 29 Nov 10:03:39 10:06:51 20° 95° (E) 10:10:06 437.445
GOMX 1 29 Nov 10:05:57 10:10:10 83° 102° (ESE) 10:14:33 467.674
CUTE 1.7 + AOD 2 29 Nov 10:06:05 10:10:21 65° 285° (WNW) 10:14:37 437.475
POPSAT HIP 1 29 Nov 10:12:53 10:16:11 22° 69° (ENE) 10:19:28 437.405
HO-68 29 Nov 10:14:28 10:21:39 76° 288° (WNW) 10:28:46 435.675
ZACube-1 29 Nov 10:22:41 10:26:10 24° 96° (E) 10:29:42 437.345
TIGRISAT 29 Nov 10:27:44 10:31:48 48° 74° (ENE) 10:35:54 435.000
DELFI C3 29 Nov 10:30:02 10:34:09 60° 100° (E) 10:38:13 145.870
SEEDS 29 Nov 10:34:39 10:38:33 35° 288° (WNW) 10:42:26 437.485
VELOX 1 29 Nov 10:37:19 10:40:37 21° 95° (E) 10:43:55 145.980
50 SAT 29 Nov 10:38:03 10:40:38 16° 94° (E) 10:43:13 437.505
UNISAT 6 29 Nov 10:43:19 10:47:34 76° 76° (ENE) 10:51:50 437.425
AAUSAT CUBESAT 2 29 Nov 10:43:53 10:47:47 36° 288° (WNW) 10:51:40 437.432
DOVE 4 29 Nov 10:44:51 10:48:55 47° 286° (WNW) 10:53:07 437.250
UKube-1 29 Nov 10:47:05 10:51:27 89° 283° (WNW) 10:55:46 .
POLYITAN 1 29 Nov 10:47:45 10:51:55 58° 75° (ENE) 10:56:05 437.675
QB50P2 29 Nov 10:48:13 10:52:24 58° 75° (ENE) 10:56:35 145.880/145.840
ESTCUBE 1 29 Nov 10:51:31 10:52:19 10° 91° (E) 10:53:06 437.505/2401.250
DUCHIFAT 1 29 Nov 10:51:43 10:55:55 63° 75° (ENE) 11:00:07 145.980
CINEMA 3 29 Nov 10:53:07 10:57:21 65° 284° (WNW) 11:01:45 145.822/145.860
BRITE-PL 29 Nov 10:54:31 10:57:30 20° 291° (WNW) 11:00:33 437.365/2234.400
Oscar 11 29 Nov 10:55:38 10:59:55 57° 285° (WNW) 11:04:11 145.826/435.025
FUNcube-1 29 Nov 10:56:04 11:00:18 59° 101° (E) 11:04:37 145.935
COMPASS 1 29 Nov 11:02:27 11:05:37 21° 291° (WNW) 11:08:47 437.405
AISAT 29 Nov 11:05:11 11:09:25 44° 99° (E) 11:13:37 437.250
CUBEBUG 1 29 Nov 11:05:32 11:07:57 15° 93° (E) 11:10:20 437.445
CANX-2 29 Nov 11:09:51 11:11:38 12° 295° (WNW) 11:13:24 2200.000
NANOSAT C BR1 29 Nov 11:11:45 11:16:00 73° 258° (WSW) 11:20:15 145.865
ANTELSAT 29 Nov 11:12:44 11:16:50 47° 261° (W) 11:20:58 437.575/2403.000
BUGSAT 1 29 Nov 11:13:02 11:17:17 86° 257° (WSW) 11:21:31 437.445
HUMSAT D 29 Nov 11:13:22 11:17:29 55° 100° (E) 11:21:39 437.325/437.525
GONETS M04 29 Nov 11:19:47 11:21:38 11° 301° (WNW) 11:23:30
QB50P1 29 Nov 11:22:18 11:26:28 54° 260° (W) 11:30:38 145.935-145.965
DX 1 29 Nov 11:26:57 11:30:44 30° 290° (WNW) 11:34:31 434.975-435.025
SO-50 29 Nov 11:27:07 11:30:49 21° 48° (NE) 11:34:33 436.795
UWE-3 29 Nov 11:31:52 11:35:55 43° 286° (WNW) 11:40:05 435.000/436.395/437.385
CUBEBUG 2 29 Nov 11:39:47 11:43:33 31° 288° (WNW) 11:47:25 437.445
POPSAT HIP 1 29 Nov 11:48:19 11:51:56 27° 263° (W) 11:55:33 437.405
TISAT 1 29 Nov 11:53:26 11:54:48 11° 92° (E) 11:56:10 437.305
ZACube-1 29 Nov 11:58:56 12:02:28 26° 290° (WNW) 12:06:03 437.345
HO-68 29 Nov 12:05:05 12:08:09 13° 306° (NW) 12:11:13 435.675
TIGRISAT 29 Nov 12:07:10 12:08:49 12° 268° (W) 12:10:28 435.000
DELFI C3 29 Nov 12:08:18 12:08:54 10° 295° (WNW) 12:09:29 145.870
50 SAT 29 Nov 12:12:19 12:16:00 33° 288° (WNW) 12:19:42 437.505
VELOX 1 29 Nov 12:13:20 12:17:13 31° 290° (WNW) 12:21:05 145.980
SPROUT 29 Nov 12:13:42 12:16:43 19° 94° (E) 12:19:43 437.525
ESTCUBE 1 29 Nov 12:25:05 12:29:34 63° 285° (WNW) 12:34:01 437.505/2401.250
FUNcube-1 29 Nov 12:34:53 12:36:10 11° 295° (WNW) 12:37:27 145.935
CUBEBUG 1 29 Nov 12:40:24 12:44:30 42° 287° (WNW) 12:48:34 437.445
AISAT 29 Nov 12:43:05 12:45:40 15° 294° (WNW) 12:48:14 437.250
HUMSAT D 29 Nov 12:51:27 12:52:49 11° 295° (WNW) 12:54:12 437.325/437.525
VERMONT LUNAR 29 Nov 12:54:02 12:57:16 32° 150° (SSE) 13:00:31 437.305
DANDE 29 Nov 12:54:31 12:56:51 26° 95° (E) 12:59:06 436.750
PHONESAT 2.4 29 Nov 12:58:58 13:02:01 25° 147° (SSE) 13:05:05 2401.200-2431.200
ITAMSAT 1 29 Nov 13:03:11 13:06:05 15° 63° (ENE) 13:08:58 435.822/435.867
SO-50 29 Nov 13:06:55 13:11:37 48° 245° (WSW) 13:16:19 436.795
AUBIESAT-1 29 Nov 13:07:10 13:08:39 11° 94° (E) 13:10:07 437.475
M-CUBED/EXP-1 PRIME 29 Nov 13:13:55 13:16:48 16° 96° (E) 13:19:37 437.505
TISAT 1 29 Nov 13:26:50 13:30:54 50° 286° (WNW) 13:34:57 437.305
BEESAT 29 Nov 13:26:50 13:30:20 20° 94° (E) 13:33:49 436.000
YUBILEINY 29 Nov 13:36:38 13:45:04 51° 78° (ENE) 13:53:24 435.215
Oscar 19 29 Nov 13:38:08 13:43:14 87° 76° (ENE) 13:48:23 437.125/150
SPROUT 29 Nov 13:49:02 13:52:51 32° 289° (WNW) 13:56:38 437.525
MaSat-1 29 Nov 13:53:17 13:54:05 11° 107° (ESE) 13:54:52 437.345
CUSAT 1 29 Nov 13:55:10 13:56:54 16° 285° (WNW) 13:58:39 437.405
Gurwin Techsat 1B 29 Nov 13:56:01 14:00:27 28° 68° (ENE) 14:04:54 435.225
ITUPSAT 1 29 Nov 14:23:56 14:28:45 81° 103° (ESE) 14:33:32 437.325
KKS-1 29 Nov 14:28:18 14:31:12 17° 94° (E) 14:34:05 437.445
VERMONT LUNAR 29 Nov 14:32:00 14:35:35 67° 345° (NNW) 14:39:12 437.305
SWISSCUBE 29 Nov 14:33:21 14:38:08 72° 285° (WNW) 14:42:53 437.505
PHONESAT 2.4 29 Nov 14:36:52 14:40:34 81° 343° (NNW) 14:44:17 2401.200-2431.200
AUBIESAT-1 29 Nov 14:39:12 14:44:05 71° 289° (WNW) 14:48:45 437.475
ITAMSAT 1 29 Nov 14:39:51 14:45:00 63° 258° (WSW) 14:50:11 435.822/435.867
HORYU 2 29 Nov 14:42:47 14:46:38 30° 70° (ENE) 14:50:30 437.375
M-CUBED/EXP-1 PRIME 29 Nov 14:47:19 14:52:07 53° 291° (WNW) 14:56:43 437.505
BEESAT 29 Nov 15:03:52 15:08:16 37° 289° (WNW) 15:12:39 436.000
AO-7 29 Nov 15:07:05 15:14:19 35° 61° (ENE) 15:21:35 29.400- 29.500
STARS 29 Nov 15:14:49 15:18:55 38° 99° (E) 15:23:00 437.465
MaSat-1 29 Nov 15:26:00 15:28:17 21° 298° (WNW) 15:30:26 437.345
YUBILEINY 29 Nov 15:34:08 15:41:24 31° 276° (W) 15:48:39 435.215
RS-15 29 Nov 15:34:30 15:45:04 55° 111° (ESE) 15:55:32 29.354- 29.394
Gurwin Techsat 1B 29 Nov 15:35:31 15:40:16 33° 263° (W) 15:45:02 435.225
O/OREOS (USA 219) 29 Nov 15:45:25 15:49:51 62° 68° (ENE) 15:54:18 437.305
KKS-1 29 Nov 16:03:51 16:07:57 38° 288° (WNW) 16:12:03 437.445
ITUPSAT 1 29 Nov 16:05:35 16:05:55 10° 299° (WNW) 16:06:16 437.325
VERMONT LUNAR 29 Nov 16:10:50 16:14:20 45° 2° (N) 16:17:50 437.305
PHONESAT 2.4 29 Nov 16:16:00 16:19:35 46° 359° (N) 16:23:11 2401.200-2431.200
JAS-2 29 Nov 16:19:38 16:26:23 35° 66° (ENE) 16:33:13 435.910
HORYU 2 29 Nov 16:19:55 16:23:18 21° 265° (W) 16:26:42 437.375
STARS 29 Nov 16:52:11 16:55:05 18° 293° (WNW) 16:57:59 437.465
CUTE-I 29 Nov 16:54:16 16:56:06 12° 61° (ENE) 16:57:56 437.470
AO-7 29 Nov 16:58:51 17:06:47 50° 258° (WSW) 17:14:48 29.400- 29.500
MOZHAYETS 4 29 Nov 17:36:33 17:41:08 55° 100° (E) 17:45:40
RS-15 29 Nov 17:47:30 17:57:39 42° 313° (NW) 18:07:53 29.354- 29.394
VERMONT LUNAR 29 Nov 17:49:22 17:53:00 87° 19° (NNE) 17:56:37 437.305
Cubesat XI-IV 29 Nov 17:50:15 17:55:15 42° 71° (ENE) 18:00:16 437.490
PHONESAT 2.4 29 Nov 17:54:55 17:58:38 74° 16° (NNE) 18:02:21 2401.200-2431.200
PCSat 29 Nov 18:02:50 18:05:35 14° 103° (ESE) 18:08:21 145.827
JAS-2 29 Nov 18:03:41 18:11:02 49° 262° (W) 18:18:37 435.910
STRAND 1 29 Nov 18:25:03 18:26:21 11° 90° (E) 18:27:39 437.568
CUTE-I 29 Nov 18:30:02 18:35:24 84° 256° (WSW) 18:40:47 437.470
AIST 1 29 Nov 18:40:28 18:40:49 10° 84° (E) 18:41:10
PRISM 29 Nov 18:56:42 19:00:56 72° 102° (ESE) 19:05:07 437.425
BEESAT 3 29 Nov 18:58:33 19:01:56 25° 112° (ESE) 19:05:22 437.485
HO-68 29 Nov 18:58:54 19:00:41 11° 52° (NE) 19:02:27 435.675
MOZHAYETS 4 29 Nov 19:15:29 19:17:51 14° 295° (WNW) 19:20:12
BEESAT 2 29 Nov 19:16:59 19:20:46 37° 114° (ESE) 19:24:37 435.950
GONETS M04 29 Nov 19:27:25 19:36:06 58° 79° (E) 19:44:39
VERMONT LUNAR 29 Nov 19:28:21 19:31:11 22° 214° (SSW) 19:34:00 437.305
CUBESAT XI-V 29 Nov 19:29:33 19:34:10 62° 101° (E) 19:38:43 437.345
Cubesat XI-IV 29 Nov 19:31:21 19:35:27 22° 265° (W) 19:39:34 437.490
PHONESAT 2.4 29 Nov 19:34:00 19:37:15 29° 211° (SSW) 19:40:28 2401.200-2431.200
PCSat 29 Nov 19:42:59 19:48:21 67° 299° (WNW) 19:53:46 145.827
STRAND 1 29 Nov 20:00:55 20:06:01 73° 285° (WNW) 20:11:04 437.568
RS-15 29 Nov 20:08:17 20:14:15 16° 345° (NNW) 20:20:19 29.354- 29.394
AIST 2 29 Nov 20:09:37 20:13:48 71° 118° (ESE) 20:18:04 435.215
AIST 1 29 Nov 20:13:33 20:17:53 57° 279° (W) 20:22:15
DOVE 4 29 Nov 20:14:24 20:15:35 11° 66° (ENE) 20:16:45 437.250
COMPASS 1 29 Nov 20:17:12 20:19:45 16° 67° (ENE) 20:22:19 437.405
CANX-2 29 Nov 20:23:23 20:27:00 28° 71° (ENE) 20:30:39 2200.000
BRITE-PL 29 Nov 20:24:16 20:28:29 30° 72° (ENE) 20:32:27 437.365/2234.400
BEESAT 3 29 Nov 20:36:36 20:40:04 26° 308° (NW) 20:43:35 437.485
HO-68 29 Nov 20:39:55 20:47:00 65° 71° (ENE) 20:54:07 435.675
DX 1 29 Nov 20:45:54 20:48:20 15° 65° (ENE) 20:50:46 434.975-435.025
BEESAT 2 29 Nov 20:56:10 20:59:11 19° 311° (NW) 21:02:14 435.950
CUTE 1.7 + AOD 2 29 Nov 20:56:49 21:00:59 66° 76° (ENE) 21:05:11 437.475
CUBEBUG 2 29 Nov 21:01:45 21:03:42 13° 66° (ENE) 21:05:38 437.445
CUBESAT XI-V 29 Nov 21:09:09 21:11:02 12° 296° (WNW) 21:12:54 437.345
GOMX 1 29 Nov 21:11:55 21:16:36 70° 76° (ENE) 21:21:00 467.674
DELFI C3 29 Nov 21:17:07 21:20:35 28° 71° (ENE) 21:24:04 145.870
ZACube-1 29 Nov 21:18:17 21:20:36 15° 67° (ENE) 21:22:55 437.345
SEEDS 29 Nov 21:24:26 21:28:35 67° 259° (W) 21:32:47 437.485
GONETS M04 29 Nov 21:25:16 21:32:16 28° 277° (W) 21:39:15
PCSat 29 Nov 21:31:56 21:32:49 10° 318° (NW) 21:33:41 145.827
AAUSAT CUBESAT 2 29 Nov 21:32:38 21:36:46 73° 259° (WSW) 21:40:57 437.432
VELOX 1 29 Nov 21:34:06 21:36:44 16° 66° (ENE) 21:39:21 145.980
UKube-1 29 Nov 21:39:56 21:44:12 58° 74° (ENE) 21:48:29 .
Oscar 11 29 Nov 21:48:00 21:52:17 82° 77° (ENE) 21:56:37 145.826/435.025
DOVE 4 29 Nov 21:48:24 21:52:54 61° 259° (W) 21:57:11 437.250
FUNcube-1 29 Nov 21:50:27 21:54:14 34° 72° (ENE) 21:57:59 145.935
AIST 2 29 Nov 21:50:59 21:52:55 13° 315° (NW) 21:54:51 435.215
COMPASS 1 29 Nov 21:51:18 21:55:09 37° 262° (W) 21:59:03 437.405
CINEMA 3 29 Nov 21:52:57 21:57:18 88° 77° (ENE) 22:01:32 145.822/145.860
CANX-2 29 Nov 21:59:48 22:02:56 20° 266° (W) 22:06:06 2200.000
AISAT 29 Nov 22:01:31 22:05:27 31° 70° (ENE) 22:09:23 437.250
CUBEBUG 1 29 Nov 22:01:57 22:02:43 10° 63° (ENE) 22:03:29 437.445
BRITE-PL 29 Nov 22:02:59 22:06:57 24° 264° (W) 22:10:43 437.365/2234.400
HUMSAT D 29 Nov 22:04:05 22:07:38 29° 71° (ENE) 22:11:11 437.325/437.525
DX 1 29 Nov 22:19:58 22:24:10 46° 260° (W) 22:28:23 434.975-435.025
ISS 29 Nov 22:21:14 22:24:30 85° 139° (SE) 22:27:48 145.825
TIGRISAT 29 Nov 22:23:32 22:25:28 13° 92° (E) 22:27:25 435.000
RS-15 29 Nov 22:25:58 22:33:11 19° 24° (NNE) 22:40:32 29.354- 29.394
UWE-3 29 Nov 22:26:59 22:31:10 70° 259° (WSW) 22:35:20 435.000/436.395/437.385
HO-68 29 Nov 22:30:00 22:35:09 21° 267° (W) 22:40:20 435.675
CUBEBUG 2 29 Nov 22:35:57 22:40:01 46° 261° (W) 22:44:03 437.445
POLYITAN 1 29 Nov 22:38:25 22:39:45 11° 92° (E) 22:41:04 437.675
UNISAT 6 29 Nov 22:38:27 22:41:44 20° 95° (E) 22:45:02 437.425
QB50P2 29 Nov 22:38:39 22:40:01 11° 92° (E) 22:41:24 145.880/145.840
DUCHIFAT 1 29 Nov 22:41:31 22:43:11 12° 92° (E) 22:44:51 145.980
CUSAT 1 29 Nov 22:50:35 22:54:10 17° 75° (ENE) 22:58:18 437.405
ZACube-1 29 Nov 22:52:42 22:56:39 40° 261° (W) 23:00:34 437.345
DELFI C3 29 Nov 22:52:54 22:55:52 19° 266° (W) 22:58:51 145.870
JUGNU 29 Nov 22:53:56 22:56:28 13° 173° (S) 22:59:00 437.505
50 SAT 29 Nov 22:58:33 23:02:33 72° 258° (WSW) 23:06:34 437.505
BUGSAT 1 29 Nov 22:59:29 23:01:57 16° 94° (E) 23:04:24 437.445
NANOSAT C BR1 29 Nov 23:00:20 23:03:33 21° 95° (E) 23:06:45 145.865
ANTELSAT 29 Nov 23:06:55 23:11:11 40° 99° (E) 23:15:32 437.575/2403.000
SPROUT 29 Nov 23:07:39 23:09:15 12° 65° (ENE) 23:10:52 437.525
VELOX 1 29 Nov 23:08:39 23:12:55 45° 260° (W) 23:17:13 145.980
QB50P1 29 Nov 23:10:31 23:14:09 28° 97° (E) 23:17:47 145.935-145.965
UKube-1 29 Nov 23:19:47 23:20:41 11° 268° (W) 23:21:36 .
ESTCUBE 1 29 Nov 23:22:21 23:26:54 90° 257° (WSW) 23:31:30 437.505/2401.250
FUNcube-1 29 Nov 23:28:01 23:30:40 16° 266° (W) 23:33:19 145.935
CUBEBUG 1 29 Nov 23:34:04 23:38:29 69° 258° (WSW) 23:42:55 437.445
DANDE 29 Nov 23:34:26 23:39:12 35° 79° (E) 23:45:20 436.750
POPSAT HIP 1 29 Nov 23:35:32 23:39:41 56° 100° (E) 23:43:50 437.405
AISAT 29 Nov 23:38:42 23:42:05 21° 265° (W) 23:45:29 437.250
HUMSAT D 29 Nov 23:40:30 23:43:27 19° 265° (W) 23:46:24 437.325/437.525
AUBIESAT-1 29 Nov 23:55:20 23:56:16 11° 56° (NE) 23:57:14 437.475
TIGRISAT 29 Nov 23:58:06 00:02:28 53° 286° (WNW) 00:06:55 435.000
ISS 29 Nov 23:59:36 00:01:31 15° 336° (NNW) 00:03:27 145.825
M-CUBED/EXP-1 PRIME 30 Nov 00:02:13 00:04:29 14° 58° (ENE) 00:06:50 437.505
SWISSCUBE 30 Nov 00:04:55 00:05:19 10° 61° (ENE) 00:05:42 437.505
POLYITAN 1 30 Nov 00:11:52 00:15:58 51° 286° (WNW) 00:20:04 437.675
QB50P2 30 Nov 00:12:06 00:16:13 51° 286° (WNW) 00:20:19 145.880/145.840
UNISAT 6 30 Nov 00:14:28 00:18:34 35° 288° (WNW) 00:22:43 437.425
DUCHIFAT 1 30 Nov 00:15:15 00:19:18 47° 286° (WNW) 00:23:20 145.980
TISAT 1 30 Nov 00:16:56 00:21:12 89° 77° (ENE) 00:25:29 437.305
BEESAT 30 Nov 00:31:48 00:35:07 19° 66° (ENE) 00:38:26 436.000
CUSAT 1 30 Nov 00:31:56 00:37:15 63° 263° (W) 00:44:15 437.405
BUGSAT 1 30 Nov 00:33:53 00:37:33 33° 288° (WNW) 00:41:11 437.445
NANOSAT C BR1 30 Nov 00:35:49 00:39:24 28° 290° (WNW) 00:42:59 145.865
RS-15 30 Nov 00:37:54 00:48:54 55° 52° (NE) 01:00:19 29.354- 29.394
SPROUT 30 Nov 00:40:37 00:44:51 56° 260° (W) 00:49:05 437.525
JUGNU 30 Nov 00:41:42 00:44:39 14° 183° (S) 00:47:38 437.505
ANTELSAT 30 Nov 00:44:42 00:47:41 18° 293° (WNW) 00:50:42 437.575/2403.000
QB50P1 30 Nov 00:46:41 00:49:53 21° 291° (WNW) 00:53:04 145.935-145.965
SRMSAT 30 Nov 01:00:36 01:03:42 14° 177° (S) 01:06:48 437.500
MaSat-1 30 Nov 01:05:13 01:07:03 20° 250° (WSW) 01:08:58 437.345
POPSAT HIP 1 30 Nov 01:13:46 01:15:05 11° 295° (WNW) 01:16:25 437.405
DANDE 30 Nov 01:18:01 01:22:36 29° 265° (W) 01:28:21 436.750
KKS-1 30 Nov 01:25:52 01:27:49 13° 64° (ENE) 01:29:46 437.445
AUBIESAT-1 30 Nov 01:26:22 01:30:29 75° 254° (WSW) 01:35:01 437.475
ITUPSAT 1 30 Nov 01:28:29 01:33:16 73° 75° (ENE) 01:38:06 437.325
M-CUBED/EXP-1 PRIME 30 Nov 01:34:56 01:38:57 53° 256° (WSW) 01:43:22 437.505
SWISSCUBE 30 Nov 01:37:39 01:42:27 82° 257° (WSW) 01:47:17 437.505
Oscar 19 30 Nov 01:52:16 01:57:03 37° 98° (E) 02:01:49 437.125/150
BEESAT 30 Nov 02:08:06 02:12:37 42° 261° (W) 02:17:10 436.000
STARS 30 Nov 02:10:20 02:13:58 26° 69° (ENE) 02:17:37 437.465
Gurwin Techsat 1B 30 Nov 02:16:04 02:18:17 13° 91° (E) 02:20:29 435.225
YUBILEINY 30 Nov 02:34:06 02:42:44 64° 92° (E) 02:51:22 435.215
SRMSAT 30 Nov 02:49:19 02:52:04 13° 187° (S) 02:54:49 437.500
RS-15 30 Nov 02:50:41 03:00:58 42° 252° (WSW) 03:11:41 29.354- 29.394
ITAMSAT 1 30 Nov 02:55:05 03:00:10 56° 101° (E) 03:05:13 435.822/435.867
KKS-1 30 Nov 02:59:36 03:03:58 55° 259° (W) 03:08:20 437.445
